Погода в Охотске

Погода в Охотске : погода сейчас, прогноз погоды и архив. Всё, что Вы хотите узнать о погоде в Охотске!

Хотите узнать прогноз погоды в Охотске? Тогда Вам сюда: Погода в Охотске

Поиск расширенной информации на нашем сайте:

Другие новости

Новости СМИ2

Главная страница сайта

Новости сайта

03.07.2017

Напоминаем, что на нашем специализированном сайте Метеоцентр.Азия вы можете получить высокодетализированные автоматические прогнозы погоды по пунктам России, СНГ и мира в авиационном формате (включающие направление и скорость ветра, видимость, явления погоды, количество и форму облачности, нижнюю и верхнюю границу облачности).

Рекомендуем: сайт знакомств владикавказ подробнее mylove.ru сайт знакомств

Погода в Охотске - сегодня

Время (UTC), дата Ветер
(°,м/с) 
Видим.   Явления Облачность Т
(°С)
Тd
(°С)
f(%) Тe
(°С)
Pmin
(гПа)
dP
(гПа)
Po
(мм)
O2
(г/м3)
Тmin Tmax R s Состояние
почвы
21 19.07.17 110 (В) 10-16{16}  2000 м  ливневой дождь  10/10 300 м кучево-дожд. 
[Cb cap]
+11.6 +10.3 92 +11  1002.8  0.3  752  289  +11.5    13    влажная 
00 20.07.17 110 (В) 12-18{18}  2000 м  слаб. ливневой дождь  10/10 300 м кучево-дожд. 
[Cb cap]
+12.1 +10.8 92 +12  1002.3  -0.5  751  288  +11.5         
03 20.07.17 110 (В) 14-21{21}  2000 м  слаб. ливневой дождь  9/9 300 м кучево-дожд. 
[Cb cap]
+12.5 +11.2 92 +13  1001.9  -0.4  751  287           
06 20.07.17 120 (ЮВ) 14-20{22}  2000 м  слаб. ливневой дождь  9/9 300 м кучево-дожд. 
[Cb cap]
+12.6 +11.1 91 +13  1002.8  0.9  752  287           
09 20.07.17 110 (В) 12-18{21}  2000 м  слаб. ливневой дождь  10/10 300 м кучево-дожд. 
[Cb cap]
+12.4 +11 91 +12  1003.9  0.9  752  288    +12.9     
12 20.07.17 110 (В) 13-18{18}  2000 м  слаб. ливневой дождь  10/10 300 м кучево-дожд. 
[Cb cap]
+12 +11.1 94 +13  1004.2  0.3  753  288           
15 20.07.17 080 (В) 4{18}  4000 м  слаб. ливневой дождь  10/10 300 м кучево-дожд. 
[Cb cap]
+12.2 +10.6 90 +14  1005.2  0.9  753  289           
18 20.07.17 070 (В) 20000 м  слаб. ливневой дождь  10/10 300 м кучево-дожд. 
[Cb cap]
+11.5 +10.7 95 +15  1005.2  753  289           
21 20.07.17 020 (С) 20000 м  в посл. час ливневой дождь  10/10 300 м кучево-дожд. 
[Cb calv]
+11.9 +11.2 95 +16  1005  -0.2  753  289  +11.4      влажная 
00 21.07.17 020 (С) 10 км  ливневой дождь  10/10 300 м кучево-дожд. 
[Cb cap]
+13 +11.5 91 +17  1005.4  0.4  754  288           
03 21.07.17 140 (ЮВ) 10 км  слаб. ливневой дождь  10/10 300 м кучево-дожд. 
[Cb cap]
+12.8 +11.6 92 +16  1005.8  0.4  754  288           
06 21.07.17 120 (ЮВ) 4000 м  слаб. ливневой дождь  10/10 300 м кучево-дожд. 
[Cb cap]
+12.6 +11.5 93 +15  1006.3  0.5  754  288           
09 21.07.17 120 (ЮВ) 20000 м  {ливн. осадки}  9/9 300 м кучево-дожд. 
[Cb calv]
+12.5 +11.3 92 +15  1006.7  0.4  755  289    +13.2     
12 21.07.17 120 (ЮВ) 20000 м  {ливн. осадки}  9/9 300 м кучево-дожд. 
[Cb calv]
+12.3 +11.2 93 +15  1006.9  0.2  755  289           
15 21.07.17 360 (С) 20000 м    9/9 300 м кучево-дожд. 
[Cb calv]
+11.6 +10.9 95 +15  1006.3  -0.6  754  289           
18 21.07.17 360 (С) 20000 м    9/9 300 м кучево-дожд. 
[Cb calv]
+11.5 +11 97 +15  1005.9  -0.4  754  289           
21 21.07.17 340 (С) 20000 м    9/9 300 м кучево-дожд. 
[Cb calv]
+13 +11 88 +15  1005.3  -0.6  753  288  +11.5        влажная 
00 22.07.17 220 (ЮЗ) 20000 м    9/9 300 м кучево-дожд. 
[Cb calv]
+13.6   1004.5  -0.8  759             
03 22.07.17 230 (ЮЗ) 20000 м    3/3 600 м 
[Cu med, cong]
+15.3 +12.4 83 +19  1003.9  -0.6  752  285           
06 22.07.17 230 (ЮЗ) 20000 м    5/3 300 м верхняя 
[St|Ci fib]
+15.8 +12.4 80 +20  1002.7  -0.6  752  284           
09 22.07.17 190 (Ю) 20000 м    9/8 300 м верхняя 
[St|Ci fib]
+13.7 +12.4 92 +17  1002.7  0.1  752  286    +15.8       
12 22.07.17 180 (Ю) 2000 м  дымка  10/10 300 м 
[St]
+12.6 +12.1 97 +16  1002.7  0.1  752  287           
15 22.07.17 120 (ЮВ) 4000 м  дымка  10/10 300 м 
[St]
+13 +12 94 +17  1001.6  -1.1  751  286           
18 22.07.17 130 (ЮВ) 4000 м  дымка  10/10 300 м 
[St]
+12.1 +11.6 97 +16  1001.5  0.1  751  287           
21 22.07.17 030 (СВ) 20000 м    9/9 300 м 
[St]
+12.8 +12.1 96 +18  1002.2  0.7  751  287  +11.6        влажная 
Время (UTC), дата Ветер
(°,м/с) 
Видим.   Явления Облачность Т
(°С)
Тd
(°С)
f(%) Тe
(°С)
Pmin
(гПа)
dP
(гПа)
Po
(мм)
O2
(г/м3)
Тmin Tmax R s Состояние
почвы

Для получения пояснительной информации подведите курсор к названию столбца.

ПОГОДА в Охотске - архив

Всё, что Вы хотите узнать о погоде в Охотске - удобно и подробно!

Выберите нужную дату (начиная с 1 января 2015* года) и нажмите кнопку "Найти".
Будут отображены архивные сводки погоды по пункту Охотск, начиная с указанной даты.


Отображать данные в формате CSV (для использования в таблицах Excel)


Внимание! Наш архив погоды предназначен исключительно для личного некоммерческого использования в познавательных целях. Если Вам необходимы официальные справки о состоянии погоды (для производственных, юридических, коммерческих и т.п. целей), обращайтесь в органы Росгидромета.

*Примечание: данная дата относится к архиву по метеостанциям СССР (Россия, СНГ, Балтия).
Архив по метеостанциям Зарубежной Европы и Азии (кроме Китая) хранится 10 дней, по другим регионам земного шара (Китай, Африка, Америка, Австралия, Океания) - 1 день.

Охотск - район местоположения метеостанции


Название, широта, долгота, высота метеостанции:
Охотск 59.4°ш. 143.2°д. 6 м над ур. моря [Российская Федерация]

Дополнительная информация

В oтличие oт бoльшинства пoгoдных сайтoв мы публикуем пoдрoбную метеoинфoрмацию в детальнoм прoфессиoнальнoм фoрмате.

Характеристики температуры и влажнoсти вoздуха измеряются на высoте 2 м в тени вдали oт зданий и деревьев.
Скoрoсть ветра измеряется на высoте 10 м (на урoвне рoста челoвека скoрoсть ветра ниже в 1.5-2 раза). Если метеoстанция нахoдится в гoрoде или в лесу, тo скoрoсть ветра занижена на 2-4 м/с пo сравнению с oткрытым местoм. Скoрoсть ветра над акватoриями крупных рек и oзёр, а также на вершинах хoлмoв на 2-5 м/с выше, чем в oбычных услoвиях.
Атмoсфернoе давление в разных тoчках местнoсти мoжет значительнo oтличаться oт давления на метеoстанции, в зависимoсти oт услoвий рельефа (при пoдъёме на 10 м давление пoнижается примернo на 1 мм рт.ст.).